User: anonymous   Login
Location: Via Auriletto, 13, 10098 Rivoli TO, Italia
(45.0746°N, 7.5214°E)
Time: 20:46:32
(UTC+02:00)
Language:

CUBEBUG 2 - Orbit

View from above orbital plane
View from above orbital plane
View from above satellite
View from above satellite

Ground track
Ground track

The orbit data is extracted from the following two-line orbital elements,

1 39440U 13066AA  19141.07199989  .00000164  00000-0  29785-4 0  9990
2 39440  97.6019 141.2004 0080340 176.8276 183.3461 14.75841037295752
Epoch (UTC): 21 May 2019 01:43:40
Eccentricity: 0.0080340
inclination: 97.6019°
perigee height: 586 km
apogee height: 699 km
right ascension of ascending node: 141.2004°
argument of perigee: 176.8276°
revolutions per day: 14.75841037
mean anomaly at epoch: 183.3461°
orbit number at epoch: 29575

The dashed part of the orbit path shows where the satellite is in the earth's shadow,  

DLR